Погода в Биазе

Россия / Новосибирская область     56°35′45″N   78°17′55″E
темп.,
°C
ветер,
м/с
пор.,
м/с
влажн.,
%
обл.,
%
осадки,
мм/ч
давл.,
гПа
погр.,
м
10 апреля, сб
сб1001:00−1в3109245 0.0 1035191
04:00−2вюв279781 0.0 1035194
07:000вюв3582100 0.0 1038228
10:00+1в2488100 0.0 1039480
13:00+3в3584100 0.0 1040701
16:00+4в237898 0.0 1041827
19:00+4всв117884 0.0 104212
22:00−2с11925 0.0 104310
11 апреля, вс
вс1101:00−3вюв009719 0.0 104312
04:00−3з119973 0.0 104331
07:00−3зюз119992 0.0 104473
10:000зюз2294100 0.0 1043256
13:00+3зюз228551 0.0 1042432
16:00+5юз3376100 0.0 1041518
19:00+3юз3589100 0.0 1040244
22:00−1юз379577 0.0 1039161
12 апреля, пн
пн1201:00−1юз389541 0.0 1038183
04:00−1юз3119287 0.0 1036251
07:00−1юз4128773 0.0 1035280
10:00+3зюз51374100 0.0 1033381
13:00+6зюз51168100 0.0 1031488
16:00+4зюз3986100 0.1 1031381
19:00+3з3894100 0.3 1031289
22:00+3сз3895100 0.0 1032278
13 апреля, вт
вт1301:00+2зсз2792100 0.0 1031143
04:000сз279635 0.0 1033137
07:00−1сз27940 0.0 1034118
10:00+3зсз367899 0.0 1034326
13:00+6зсз47625 0.0 10341113
16:00+7зсз4867100 0.0 10331545
19:00+6зсз497299 0.0 1033712
22:00+3з39865 0.0 1033171
14 апреля, ср
ср1401:00+2з3118697 0.0 1032219
04:00+2з3108564 0.0 1032210
07:00+1зюз3108694 0.0 1031189
10:00+5зюз41180100 0.0 1030349
13:00+8зюз51172100 0.0 1027648
16:00+10зюз61173100 0.0 1025927
19:00+10зюз51179100 0.0 1023762
22:00+9зюз41186100 0.0 1022404